TimeCDT,TemperatureF,Dew PointF,Humidity,Sea Level PressureIn,VisibilityMPH,Wind Direction,Wind SpeedMPH,Gust SpeedMPH,PrecipitationIn,Events,Conditions,WindDirDegrees,DateUTC
12:55 AM,64.6,60.3,86,30.05,10.0,North,6.9,-,N/A,,Clear,360,2012-09-20 05:55:00
1:55 AM,63.7,60.1,88,30.04,10.0,North,8.1,-,N/A,,Clear,360,2012-09-20 06:55:00
2:55 AM,62.6,59.4,89,30.03,10.0,North,6.9,-,N/A,,Clear,10,2012-09-20 07:55:00
3:55 AM,62.4,58.6,87,30.03,10.0,North,6.9,-,N/A,,Clear,360,2012-09-20 08:55:00
4:55 AM,62.2,58.1,86,30.04,10.0,North,5.8,-,N/A,,Clear,10,2012-09-20 09:55:00
5:55 AM,61.5,57.9,88,30.05,10.0,North,8.1,-,N/A,,Clear,360,2012-09-20 10:55:00
6:55 AM,61.0,58.1,90,30.07,10.0,North,8.1,-,N/A,,Clear,360,2012-09-20 11:55:00
7:55 AM,65.3,58.1,77,30.08,10.0,NE,5.8,-,N/A,,Clear,40,2012-09-20 12:55:00
8:55 AM,71.6,59.2,65,30.08,10.0,NE,4.6,-,N/A,,Clear,40,2012-09-20 13:55:00
9:55 AM,76.5,59.5,56,30.08,10.0,NNE,6.9,-,N/A,,Unknown,30,2012-09-20 14:55:00
10:37 AM,78.8,60.8,54,30.08,10.0,Variable,4.6,-,N/A,Rain,Light Rain,0,2012-09-20 15:37:00
10:45 AM,78.8,62.6,57,30.08,10.0,North,3.5,-,N/A,,Clear,360,2012-09-20 15:45:00
10:55 AM,79.7,62.8,56,30.08,10.0,North,3.5,-,0.00,,Clear,350,2012-09-20 15:55:00
11:21 AM,80.6,62.6,54,30.07,10.0,NNE,4.6,-,N/A,,Light Drizzle,20,2012-09-20 16:21:00
11:38 AM,80.6,62.6,54,30.07,10.0,East,3.5,-,N/A,,Clear,100,2012-09-20 16:38:00
11:53 AM,82.4,64.4,54,30.06,10.0,South,4.6,-,N/A,Rain,Light Rain,170,2012-09-20 16:53:00
11:55 AM,81.7,64.6,56,30.06,10.0,South,5.8,-,0.00,Rain,Light Rain,180,2012-09-20 16:55:00
12:02 PM,80.6,64.4,58,30.06,10.0,South,6.9,-,N/A,,Clear,170,2012-09-20 17:02:00
12:43 PM,80.6,64.4,58,30.05,10.0,South,8.1,-,N/A,,Light Drizzle,170,2012-09-20 17:43:00
12:55 PM,81.3,64.9,57,30.05,10.0,South,8.1,-,0.00,,Light Drizzle,190,2012-09-20 17:55:00
12:59 PM,80.6,64.4,58,30.05,10.0,South,8.1,-,N/A,,Clear,180,2012-09-20 17:59:00
1:34 PM,80.6,64.4,58,30.03,10.0,South,8.1,-,N/A,Rain,Light Rain,190,2012-09-20 18:34:00
1:40 PM,80.6,64.4,58,30.03,10.0,SSE,5.8,-,N/A,,Clear,160,2012-09-20 18:40:00
1:41 PM,80.6,64.4,58,30.03,10.0,South,5.8,-,N/A,Rain,Light Rain,170,2012-09-20 18:41:00
1:44 PM,80.6,66.2,61,30.03,10.0,South,6.9,-,N/A,,Clear,180,2012-09-20 18:44:00
1:47 PM,80.6,64.4,58,30.03,10.0,Variable,5.8,-,N/A,,Light Drizzle,0,2012-09-20 18:47:00
1:51 PM,80.6,64.4,58,30.03,10.0,South,5.8,-,N/A,,Clear,190,2012-09-20 18:51:00
1:55 PM,81.5,65.3,58,30.03,10.0,South,6.9,-,0.00,,Clear,170,2012-09-20 18:55:00
2:55 PM,81.1,65.5,59,30.01,10.0,SW,6.9,-,N/A,,Clear,230,2012-09-20 19:55:00
3:20 PM,80.6,64.4,58,30.00,10.0,SW,6.9,-,N/A,,Light Drizzle,220,2012-09-20 20:20:00
3:22 PM,80.6,66.2,61,30.00,10.0,SW,6.9,-,N/A,,Clear,230,2012-09-20 20:22:00
3:23 PM,80.6,66.2,61,30.00,10.0,SW,6.9,-,N/A,,Light Drizzle,220,2012-09-20 20:23:00
3:30 PM,82.4,66.2,58,29.99,10.0,Variable,6.9,-,N/A,,Clear,0,2012-09-20 20:30:00
3:55 PM,81.7,65.7,58,29.98,10.0,SW,8.1,-,0.00,,Clear,230,2012-09-20 20:55:00
4:55 PM,81.0,66.9,62,29.99,10.0,SW,8.1,-,N/A,,Clear,220,2012-09-20 21:55:00
5:55 PM,79.7,67.3,66,29.99,10.0,South,5.8,-,N/A,,Clear,190,2012-09-20 22:55:00
6:55 PM,77.9,67.1,69,30.01,10.0,WSW,4.6,-,N/A,,Clear,240,2012-09-20 23:55:00
7:55 PM,77.5,67.5,71,30.01,10.0,WNW,4.6,-,N/A,,Clear,290,2012-09-21 00:55:00
8:55 PM,73.9,68.0,82,30.03,10.0,Calm,Calm,-,N/A,,Clear,0,2012-09-21 01:55:00
9:20 PM,71.6,68.0,88,30.04,10.0,North,4.6,-,N/A,,Light Drizzle,350,2012-09-21 02:20:00
9:30 PM,69.8,68.0,94,30.04,10.0,North,4.6,-,N/A,,Clear,350,2012-09-21 02:30:00
9:55 PM,70.0,68.4,95,30.04,10.0,North,5.8,-,0.00,,Clear,10,2012-09-21 02:55:00
10:55 PM,68.5,67.1,95,30.03,10.0,North,9.2,-,N/A,,Clear,360,2012-09-21 03:55:00
11:55 PM,68.2,64.2,87,30.02,10.0,NNE,3.5,-,N/A,,Clear,20,2012-09-21 04:55:00